Terug naar catalogus

STARLINK-34853

ActiefCommunicatieVLEO
NORAD 65892·PAYLOAD·🇺🇸 United States

Gelanceerd Oct 7, 2025 vanaf Cape Canaveral Space Force Station

Loading…

Volgende Passages (komende 24 uur)

TLE

VersSource: CelesTrak SupGP

Epoch: Sep 14, 2026, 21:21 UTC

1 65892C 25224L   26257.89006944  .00026491  00000+0  78244-3 0  2573
2 65892  53.1577 208.2263 0001510 105.7469 213.7286 15.34386795    13

Volg STARLINK-34853 in realtime met AllMySat

Download on the App Store